Weather History for KVTA - November, 2011

Change the Weather History Date:

Friday, November 25, 2011

  Actual Average Record
Temperature  
Mean Temperature 42 °F -  
Max Temperature 57 °F 46 °F 65 °F (1987)
Min Temperature 28 °F 28 °F 6 °F (1950)
Degree Days  
Heating Degree Days 22    
Moisture  
Dew Point 31 °F    
Average Humidity 83    
Maximum Humidity 100    
Minimum Humidity 45    
Precipitation  
Precipitation 0.00 in - - ()
Sea Level Pressure  
Sea Level Pressure 30.22 in    
Wind  
Wind Speed 2 mph (SSW)    
Max Wind Speed 15 mph    
Max Gust Speed 22 mph    
Visibility 5 miles    
Events Fog    
Averages and records for this station are not official NWS values.
T = Trace of Precipitation, MM = Missing Value Source: NWS Daily Summary

Daily Weather History Graph

Daily Weather History Graph

Search for Another Location

Airport or City:

Trip Planner

Search our weather history database for the weather conditions in past years. The results will help you decide how hot, cold, wet, or windy it might be!

Date:

Astronomy

Nov. 25, 2011 Rise Set
Actual Time 7:26 AM EST 5:07 PM EST
Civil Twilight 6:56 AM EST 5:36 PM EST
Nautical Twilight 6:23 AM EST 6:10 PM EST
Astronomical Twilight 5:50 AM EST 6:42 PM EST
Moon 7:52 AM EST (11/25) 5:33 PM EST (11/25)
Length of Visible Light 10h 40m
Length of Day
9h 41m
New Moon, 0% of the Moon is Illuminated
Nov 25
New Moon
Dec 2
First Quarter
Dec 10
Full
Dec 17
Last Quarter
Dec 24
New

Hourly Weather History & Observations

Time (EST) Temp. Windchill Dew Point Humidity Pressure Visibility Wind Dir Wind Speed Gust Speed Precip Events Conditions
12:54 AM 30.9 °F - 30.0 °F 96% 30.28 in 0.2 mi Calm Calm - N/A Fog Light Freezing Fog
1:54 AM 30.0 °F - 30.0 °F 100% 30.27 in 0.2 mi Calm Calm - N/A Fog Light Freezing Fog
2:54 AM 30.0 °F - 28.9 °F 96% 30.28 in 0.2 mi Calm Calm - N/A Fog Light Freezing Fog
3:54 AM 28.9 °F - 28.0 °F 96% 30.27 in 0.2 mi Calm Calm - N/A Fog Light Freezing Fog
4:18 AM 30.2 °F - 28.4 °F 93% 30.24 in 0.8 mi Calm Calm - N/A   Mist
4:43 AM 28.4 °F - 28.4 °F 100% 30.24 in 1.2 mi Calm Calm - N/A   Scattered Clouds
4:46 AM 28.4 °F - 28.4 °F 100% 30.24 in 3.0 mi Calm Calm - N/A   Scattered Clouds
5:06 AM 28.4 °F - 26.6 °F 93% 30.24 in 1.0 mi Calm Calm - N/A   Mist
5:11 AM 28.4 °F - 28.4 °F 100% 30.24 in 0.2 mi Calm Calm - N/A Fog Light Freezing Fog
5:39 AM 30.2 °F - 28.4 °F 93% 30.24 in 0.8 mi Calm Calm - N/A   Mist
5:41 AM 28.4 °F - 28.4 °F 100% 30.24 in 2.0 mi Calm Calm - N/A   Overcast
5:49 AM 28.4 °F - 26.6 °F 93% 30.24 in 5.0 mi Calm Calm - N/A   Mostly Cloudy
5:54 AM 28.9 °F - 27.0 °F 92% 30.26 in 4.0 mi Calm Calm - N/A   Mostly Cloudy
6:01 AM 28.4 °F - 26.6 °F 93% 30.24 in 1.8 mi Calm Calm - N/A   Mostly Cloudy
6:21 AM 28.4 °F - 26.6 °F 93% 30.24 in 0.5 mi Calm Calm - N/A Fog Light Freezing Fog
6:30 AM 28.4 °F - 26.6 °F 93% 30.24 in 0.2 mi Calm Calm - N/A Fog Light Freezing Fog
6:54 AM 28.0 °F - 27.0 °F 96% 30.27 in 0.2 mi Calm Calm - N/A Fog Light Freezing Fog
7:45 AM 28.4 °F - 26.6 °F 93% 30.25 in 1.2 mi Calm Calm - N/A   Partly Cloudy
7:54 AM 28.9 °F - 26.1 °F 89% 30.27 in 2.5 mi Calm Calm - N/A   Partly Cloudy
8:11 AM 30.2 °F - 28.4 °F 93% 30.25 in 3.0 mi Calm Calm - N/A   Clear
8:54 AM 36.0 °F 32.1 °F 35.1 °F 97% 30.28 in 7.0 mi SSW 4.6 mph - N/A   Clear
9:54 AM 43.0 °F 37.7 °F 37.9 °F 82% 30.28 in 10.0 mi SSW 9.2 mph - N/A   Clear
10:54 AM 48.0 °F - 39.0 °F 71% 30.26 in 10.0 mi SSW 9.2 mph - N/A   Clear
11:54 AM 54.0 °F - 39.0 °F 57% 30.23 in 10.0 mi SW 9.2 mph 18.4 mph N/A   Clear
12:54 PM 55.9 °F - 39.0 °F 53% 30.19 in 10.0 mi SW 15.0 mph 20.7 mph N/A   Clear
1:54 PM 57.0 °F - 36.0 °F 45% 30.17 in 10.0 mi SW 12.7 mph 21.9 mph N/A   Clear
2:54 PM 57.9 °F - 37.9 °F 47% 30.16 in 10.0 mi SSW 11.5 mph 20.7 mph N/A   Clear
4:54 PM 55.9 °F - 37.0 °F 49% 30.14 in 10.0 mi South 8.1 mph - N/A   Clear
5:54 PM 51.1 °F - 36.0 °F 56% 30.13 in 10.0 mi South 3.5 mph - N/A   Clear
6:54 PM 48.0 °F - 35.1 °F 61% 30.13 in 10.0 mi SSW 3.5 mph - N/A   Clear
7:54 PM 48.9 °F - 34.0 °F 56% 30.14 in 10.0 mi SW 4.6 mph - N/A   Clear
9:54 PM 37.9 °F - 33.1 °F 83% 30.14 in 10.0 mi Calm Calm - N/A   Clear
10:54 PM 37.9 °F - 33.1 °F 83% 30.14 in 10.0 mi Calm Calm - N/A   Clear
11:54 PM 35.1 °F - 32.0 °F 89% 30.14 in 10.0 mi Calm Calm - N/A   Clear